Location: Kailua
(21.4020°N, 157.7390°W)
Time: 18:52:52
(UTC-10:00)

Daily predictions for brighter satellites

Satellite Brightness Start Highest point End
(mag) Time Altitude Azimuth Time Altitude Azimuth Time Altitude Azimuth
ATLAS 2A CENTAUR R/B 4.4 18:28:01 10° SW 18:34:46 70° SSE 19:22:33 10° ENE
Lacrosse 5 rocket 2.2 19:34:17 10° S 19:37:02 21° ESE 19:39:47 10° ENE
Cosmos 1869 3.7 19:35:59 10° NNE 19:39:45 41° E 19:43:32 10° SSE
PSLV R/B 4.2 19:37:07 10° NNW 19:39:58 31° NE 19:42:46 10° E
Milstar 3 4.1 19:29:30 10° WSW 19:47:13 72° SSE 19:56:10 10° ENE
Delta 128 3.9 19:45:15 10° WNW 19:49:53 70° SSW 19:54:46 12° ESE
FengYun 1-2 T 4.2 19:45:57 10° SSE 19:51:27 83° ENE 19:57:00 10° N
FUSE 4.0 19:47:12 10° WSW 19:52:31 88° NNW 19:57:51 10° ENE
Tsikada Rocket 4.3 19:49:04 10° SSE 19:54:58 45° E 20:00:49 10° NNE
Cosmos 2369 Rocket 3.0 19:56:24 10° SSE 20:01:07 28° ESE 20:05:52 10° NE
Mugunghwa Rocket 4.5 19:55:26 10° SW 20:02:18 54° SSE 20:09:58 10° E
Spot 2 Rocket 3.8 19:59:07 10° SSE 20:03:58 47° ENE 20:08:51 10° N
Cosmos 1400 Rocket 4.2 20:00:15 10° SSW 20:04:10 44° W 20:08:03 10° N
Cosmos 1633 Rocket 4.1 20:00:19 10° SSW 20:04:33 49° W 20:08:48 10° N
GPS 2-17 Rocket1 2.9 20:02:02 10° W 20:06:30 72° S 20:09:51 17° E
Cosmos 1707 Rocket 3.8 20:03:38 10° N 20:08:01 74° W 20:12:20 10° S
SL-27 R/B 4.2 20:06:00 10° NW 20:09:09 32° W 20:12:20 10° SSW
Cosmos 923 Rocket 4.0 20:05:20 10° NNW 20:10:37 89° ENE 20:15:56 10° SSE
Aurora 2 Rocket 3.0 20:09:03 10° WNW 20:14:46 63° N 20:17:43 19° E
Cosmos 2242 Rocket 3.8 20:11:06 10° N 20:15:25 50° E 20:18:36 17° SSE
Delta 168 3.4 20:12:14 10° W 20:15:38 51° N 20:19:49 12° ENE
Cosmos 2034 Rocket 4.0 20:11:49 10° N 20:17:53 58° E 20:23:38 11° SSE
Resurs 01 Rocket 1.5 20:14:07 10° SSE 20:18:32 85° ENE 20:22:57 10° N
Hubble Space Telescope 1.6 20:15:04 10° WNW 20:19:03 44° NNE 20:21:37 19° ENE
YAOGAN 6 4.5 20:19:23 16° ENE 20:19:23 16° ENE 20:21:33 10° NE
Helios 1B rocket 2.7 20:16:55 10° NNE 20:20:50 43° E 20:23:52 15° SSE
Cosmos 1933 Rocket 3.6 20:18:11 10° S 20:22:30 80° W 20:26:50 10° N
TSX-5 4.4 20:18:11 10° NNW 20:24:02 71° ENE 20:26:49 24° SSE
Cosmos 1464 Rocket 4.1 20:19:06 10° N 20:25:27 81° W 20:31:49 10° S
Envisat 3.0 20:27:32 22° SSE 20:30:47 61° ENE 20:35:47 10° N
ISS -1.0 20:30:32 10° W 20:33:05 21° NW 20:35:37 10° N
Cosmos 1315 Rocket 4.4 20:30:45 10° SSW 20:34:25 36° W 20:38:08 10° NNW
Helios 1A 3.7 20:36:01 33° E 20:36:22 33° ENE 20:40:07 10° N
Meteor 2-3 Rocket 3.7 20:30:52 10° S 20:36:37 77° E 20:42:19 10° N
Cosmos 1862 Rocket 3.6 20:32:27 10° N 20:36:53 61° E 20:38:35 35° SSE
Cosmos 2112 Rocket 4.1 20:33:05 10° NNW 20:38:26 77° WSW 20:42:12 20° S
Cosmos 1680 Rocket 4.0 20:35:43 10° NNW 20:40:55 59° WSW 20:45:13 15° S
Ariane H10+ 3.9 20:40:40 10° SW 20:42:34 11° SSW 20:43:24 11° S
Cosmos 1125 Rocket 3.9 20:42:45 37° ESE 20:43:08 38° E 20:47:56 10° NE
COSMOS 2487 2.3 20:42:51 10° NNW 20:46:24 90° E 20:46:44 71° SSE
Fermi 3.8 20:43:21 10° W 20:47:26 61° SSW 20:47:55 55° SSE
Meteor 1-26 Rocket 4.3 20:42:27 10° N 20:48:01 57° E 20:49:57 39° SE
Timation 2 Rocket 4.1 20:46:00 10° N 20:52:23 64° ENE 20:54:51 39° SE
CZ-4B DEB 4.4 20:52:33 83° SSW 20:52:41 87° W 20:56:14 10° NNW
Cosmos 1892 3.8 20:53:54 14° SSW 20:57:02 44° W 21:00:43 10° N
Meteor 2-10 Rocket 4.1 20:51:40 10° NNW 20:57:27 66° W 21:01:19 21° S
USA 186 3.8 20:57:37 17° W 20:57:44 17° W 20:59:31 10° NW
USA 142 3.6 20:55:15 10° WNW 20:59:21 55° SSW 20:59:25 55° SSW
Cosmos 2082 Rocket 2.9 20:55:01 10° NNW 21:00:28 51° WSW 21:03:43 24° S
H-2A R/B 4.2 21:05:37 13° NE 21:05:37 13° NE 21:07:01 10° NE
Meteor 1-29 4.0 21:03:01 10° N 21:06:21 45° WNW 21:06:52 41° WSW
COSMOS 2455 3.9 21:00:54 10° SW 21:06:36 45° WNW 21:12:20 10° N
Delta 7925 Rocket 3.3 21:01:43 10° WSW 21:06:37 88° SSE 21:07:49 56° ENE
CENTAUR R/B 2.4 21:02:01 10° SSW 21:07:39 78° WNW 21:13:55 10° NNE
GPS 2-15 Rocket1 3.3 21:03:26 10° W 21:07:36 57° SSW 21:07:36 57° SSW
Cosmos 1833 Rocket 3.8 21:08:08 10° NW 21:13:19 39° WSW 21:16:08 23° SSW
Cosmos 1703 Rocket 4.5 21:09:23 10° N 21:12:19 38° NNE 21:12:19 38° NNE
Cosmos 1939 Rocket 3.8 21:15:05 42° WSW 21:15:36 44° W 21:19:33 10° NNW
Lacrosse 5 rocket 4.0 21:13:45 10° W 21:16:04 16° NW 21:18:24 10° N
Spot 1 4.2 21:19:01 78° W 21:19:01 78° W 21:23:45 10° NNW
Cosmos 1869 Rocket 4.0 21:22:08 58° WNW 21:22:08 58° WNW 21:26:10 10° N
OAO 2 Rocket 4.3 21:21:10 10° NW 21:25:43 36° NNE 21:25:43 36° NNE
Cosmos 1943 Rocket 2.3 21:28:14 43° SW 21:30:02 70° WNW 21:35:36 10° NNE
Cosmos 1346 Rocket 4.1 21:26:20 10° NNW 21:29:07 38° NW 21:29:07 38° NW
NOAA 11 4.3 21:33:40 69° NNE 21:33:40 69° NNE 21:38:30 10° N
FUSE 4.4 21:33:49 10° W 21:38:32 56° NNW 21:38:32 56° NNW
ERS-1 Rocket 3.6 21:43:23 53° NNW 21:43:23 53° NNW 21:47:14 10° NNW
Cosmos 2369 Rocket 4.3 21:40:29 10° WSW 21:44:58 24° WNW 21:49:29 10° NNW
Centaur D AC-29 4.2 21:16:29 10° SW 21:44:51 33° S 21:44:51 33° S
Mugunghwa Rocket 4.5 21:50:46 10° W 21:58:23 76° NNW 21:59:25 67° NE
Hubble Space Telescope 3.6 21:56:16 10° WNW 21:56:58 14° W 21:56:58 14° W
USA 215 4.0 22:26:07 47° N 22:26:07 47° N 22:30:49 10° NNW
ATLAS 5 CENTAUR R/B 4.1 22:19:27 10° N 22:22:29 25° NNE 22:22:29 25° NNE
Milstar 3 3.5 22:22:13 10° W 22:32:11 57° N 22:32:25 57° N
H-2A R/B 4.3 22:46:15 22° NW 22:46:15 22° NW 22:48:13 10° NNW
